[[{"header":{"parameterUnit":"m.s-1","parameterCategory":2,"la1":30.2991,"la2":30.254,"lo1":-89.0895,"lo2":-89.0444,"dy":0.0017,"dx":0.0017,"nx":28,"ny":28,"refTime":"2025-06-22T21:00:00:Z","depth":"0","parameterNumber":2,"parameterNumberName":"U-component_of_CURRENTS"},"data":[0,0,0,0,0,0,0,0,0,0,0,0,0,0,0,0,0,0,0,0,0,0,0,0,0,0,0,0,0,0,0,0,0,0,0,0,0,0,0,0,0,0,0,0,0,0,0,0,0,0,0,0,0,0,0,0,0,0,0.3202,0.3203,0,0.3208,0.3208,0.3208,0.3181,0.318,0.3179,0.3179,0.3159,0.3159,0.3159,0,0,0,0,0,0,0,0,0,0,0,0,0,0.3199,0.3199,0.3202,0.3203,0.3203,0.3208,0.3208,0.3208,0.3181,0.318,0.3179,0.3179,0.3159,0.3159,0.3159,0,0,0,0,0,0,0,0,0,0,0,0,0,0.3201,0.3199,0.3202,0.3191,0.3191,0.3208,0.3208,0.3208,0.3181,0.318,0.3179,0.3178,0.3159,0.3159,0.3159,0.3177,0,0,0.3159,0.3159,0,0,0,0,0,0,0,0,0.32,0.32,0.3193,0.3192,0.3191,0.3195,0.32,0.3197,0.3181,0.3183,0.3179,0.3178,0.317,0.3169,0.317,0.3176,0.3176,0.3159,0.3159,0.3159,0.3159,0,0,0,0,0,0,0,0.32,0.32,0.3203,0.3193,0.3192,0.3197,0.3196,0.3199,0.3179,0.3182,0.3181,0.3185,0.3169,0.317,0.3169,0.3175,0.3159,0.3159,0.3159,0.3159,0.3237,0.3239,0,0,0,0,0,0,0.3203,0.32,0.3203,0.3203,0.3196,0.3198,0.3197,0.3193,0.318,0.3178,0.3186,0.3184,0.317,0.3169,0.3168,0.3218,0.3159,0.3159,0.3159,0.3235,0.3237,0.3239,0,0,0,0,0,0,0.3203,0.3203,0.3202,0.3204,0.3204,0.3199,0.3195,0.3194,0.3198,0.3183,0.318,0.3192,0.317,0.3168,0.3186,0.3216,0.3159,0.3159,0.3232,0.3235,0.3238,0.33,0,0,0,0,0,0,0.3203,0.3203,0.3205,0.3204,0.3204,0.322,0.3196,0.3194,0.3203,0.32,0.3188,0.3185,0.3169,0.3186,0.3186,0.3215,0.3159,0.323,0.3234,0.3237,0.3296,0.3305,0.3313,0,0,0,0,0,0.3202,0.3208,0.3204,0.3205,0.3205,0.3221,0.3222,0.3214,0.3204,0.3213,0.321,0.3185,0.321,0.3188,0.3187,0.3217,0.3228,0.3233,0.3237,0.3292,0.3303,0.3313,0,0,0,0,0,0,0.3207,0.3206,0.3202,0.3206,0.3217,0.3217,0.3227,0.3223,0.3228,0.3226,0.3207,0.3204,0.3235,0.3222,0.3197,0.3254,0.3217,0.3222,0.3259,0.327,0.3278,0.3283,0.3159,0,0,0,0,0,0.321,0.3213,0.3218,0.3224,0.3231,0.3231,0.3238,0.3236,0.324,0.324,0.3232,0.3235,0.3255,0.3257,0.3266,0.3292,0.3324,0.3314,0.3323,0.333,0.3336,0.3442,0.3461,0.3254,0.3254,0.3254,0,0,0.3213,0.3215,0.3215,0.3226,0.3231,0.3251,0.3232,0.3249,0.3268,0.3239,0.3259,0.3264,0.327,0.3303,0.3315,0.3293,0.3406,0.3336,0.3342,0.3344,0.3449,0.3469,0.3487,0.3258,0.3257,0.3256,0,0,0.3226,0.3224,0.3233,0.3248,0.3265,0.3271,0.328,0.3287,0.3292,0.3319,0.3311,0.3337,0.335,0.3365,0.3376,0.3441,0.3453,0.3443,0.3485,0.3588,0.3606,0.3622,0.3688,0.3709,0.3444,0.3444,0.3444,0,0.3231,0.3238,0.3242,0.3262,0.3277,0.3283,0.3306,0.3321,0.3333,0.3355,0.3334,0.3401,0.3385,0.3455,0.3463,0.346,0.3512,0.3441,0.36,0.3617,0.3633,0.3696,0.3719,0.3447,0.3447,0.3446,0.3446,0,0.3252,0.3263,0.3274,0.3298,0.3322,0.3341,0.3367,0.3392,0.3401,0.3419,0.3487,0.349,0.3536,0.3534,0.3507,0.3611,0.361,0.3604,0.3573,0.3657,0.3718,0.3741,0.3452,0.3451,0.345,0.3449,0,0,0.324,0.3278,0.3281,0.3294,0.334,0.3354,0.3412,0.3461,0.3506,0.3535,0.3608,0.363,0.3647,0.366,0.3654,0.3712,0.384,0.3696,0.37,0.3759,0.4061,0.3959,0.3974,0.3876,0.388,0.3884,0.4059,0,0.3251,0.3284,0.3309,0.3346,0.3364,0.3405,0.3459,0.3513,0.356,0.3632,0.3678,0.3742,0.3696,0.3729,0.3789,0.3839,0.3905,0.3792,0.3972,0.3976,0.3875,0.3998,0.3775,0.3904,0.4081,0.4085,0.4088,0,0.3253,0.3277,0.3309,0.3365,0.3379,0.3409,0.35,0.3549,0.3666,0.3714,0.381,0.3857,0.3959,0.3903,0.4067,0.4007,0.4036,0.4061,0.4069,0.3967,0.3917,0.385,0.3939,0.3822,0.4123,0.412,0.4117,0,0.3218,0.327,0.3289,0.3306,0.338,0.3412,0.3459,0.3569,0.3645,0.3779,0.3877,0.3996,0.4091,0.4171,0.4223,0.4172,0.4396,0.4341,0.428,0.4273,0.411,0.408,0.4102,0.4462,0.4462,0.4461,0.4461,0,0.3202,0.3215,0.3268,0.3275,0.3325,0.3385,0.3471,0.3539,0.3691,0.381,0.3918,0.4056,0.4169,0.4305,0.4312,0.4385,0.4493,0.4317,0.4329,0.4122,0.4093,0.4003,0.3949,0.4468,0.4466,0.4465,0.4464,0,0.3149,0.3181,0.3207,0.3278,0.3301,0.3333,0.3475,0.3558,0.37,0.3874,0.3939,0.416,0.4325,0.4418,0.4558,0.4509,0.4433,0.4555,0.4282,0.4257,0.4026,0.3983,0.392,0.381,0.4517,0.4516,0.4515,0,0.3119,0.3125,0.3191,0.3222,0.3247,0.332,0.3395,0.3538,0.3644,0.3934,0.4024,0.4255,0.4384,0.456,0.4513,0.4541,0.4417,0.4341,0.4177,0.4009,0.3974,0.3842,0.3745,0.3996,0.3991,0.3987,0.3983,0,0.3075,0.3095,0.3124,0.3199,0.3256,0.3328,0.3436,0.3518,0.3716,0.3868,0.4072,0.4199,0.4366,0.4301,0.4339,0.4314,0.4101,0.425,0.4171,0.3648,0.3416,0.3315,0.3872,0.3946,0.3949,0.3952,0.3954,0.3956,0.3044,0.3063,0.3122,0.3178,0.3246,0.331,0.3332,0.3466,0.3598,0.3758,0.3969,0.4044,0.4087,0.4089,0.4053,0.3812,0.3842,0.3645,0.3637,0.3543,0.3328,0.378,0.38,0.3803,0.3805,0.3807,0.3809,0,0.3027,0.3058,0.3112,0.3169,0.3202,0.326,0.3349,0.3341,0.341,0.3563,0.3679,0.3666,0.3599,0.3585,0.3402,0.3226,0.3077,0.3127,0.2893,0.2852,0.3341,0.3205,0.2981,0.2981,0.2981,0.2981,0.2981,0.2981,0.3027,0.3062,0.3087,0.3111,0.3136,0.3117,0.3121,0.3108,0.3152,0.3127,0.3086,0.3149,0.3231,0.3153,0.2927,0.2827,0.2614,0.2452,0.252,0.2853,0.2899,0.2944,0.2804,0.2499,0.2499,0.1873,0.1868,0.1864]},{"header":{"parameterUnit":"m.s-1","parameterCategory":2,"la1":30.2991,"la2":30.254,"lo1":-89.0895,"lo2":-89.0444,"dy":0.0017,"dx":0.0017,"nx":28,"ny":28,"refTime":"2025-06-22T21:00:00:Z","depth":"0","parameterNumber":3,"parameterNumberName":"V-component_of_CURRENTS"},"data":[0,0,0,0,0,0,0,0,0,0,0,0,0,0,0,0,0,0,0,0,0,0,0,0,0,0,0,0,0,0,0,0,0,0,0,0,0,0,0,0,0,0,0,0,0,0,0,0,0,0,0,0,0,0,0,0,0,0,0.0293,0.0293,0,0.0259,0.0258,0.0258,0.0227,0.0226,0.0226,0.0226,0.0181,0.018,0.0179,0,0,0,0,0,0,0,0,0,0,0,0,0,0.0295,0.0296,0.0293,0.0293,0.0293,0.0259,0.0258,0.0258,0.0227,0.0226,0.0226,0.0226,0.0181,0.018,0.0179,0,0,0,0,0,0,0,0,0,0,0,0,0,0.028,0.0296,0.0293,0.0274,0.0272,0.0259,0.0258,0.0257,0.0227,0.0226,0.0226,0.0226,0.0181,0.018,0.0179,0.0178,0,0,0.0174,0.0174,0,0,0,0,0,0,0,0,0.0281,0.028,0.0277,0.0275,0.0273,0.0248,0.0242,0.0231,0.0227,0.0243,0.0226,0.0225,0.0203,0.02,0.0193,0.0176,0.0174,0.0174,0.0173,0.0173,0.0172,0,0,0,0,0,0,0,0.0282,0.0281,0.0278,0.0277,0.0274,0.0254,0.0252,0.024,0.0224,0.0241,0.0239,0.0237,0.0202,0.0194,0.0191,0.0173,0.0174,0.0173,0.0172,0.0171,0.0155,0.0156,0,0,0,0,0,0,0.0291,0.0282,0.028,0.0277,0.0277,0.0255,0.0252,0.0255,0.0225,0.022,0.0238,0.0236,0.0197,0.0193,0.019,0.0207,0.0173,0.0171,0.017,0.0155,0.0155,0.0156,0,0,0,0,0,0,0.0292,0.0292,0.0281,0.028,0.0277,0.0256,0.0259,0.0255,0.0249,0.0222,0.0217,0.0237,0.0196,0.0192,0.0186,0.0204,0.0171,0.0169,0.0154,0.0155,0.0156,0.0229,0,0,0,0,0,0,0.0292,0.0292,0.0296,0.0281,0.0277,0.0284,0.0259,0.0254,0.0249,0.0246,0.022,0.0215,0.0196,0.0189,0.0185,0.0202,0.0168,0.0154,0.0155,0.0155,0.0226,0.0232,0.0237,0,0,0,0,0,0.0292,0.0306,0.0296,0.0296,0.0284,0.0285,0.0281,0.0263,0.0249,0.0255,0.0235,0.0216,0.0191,0.0188,0.0183,0.0201,0.0153,0.0154,0.0155,0.0224,0.0231,0.0237,0,0,0,0,0,0,0.0307,0.0303,0.0293,0.0303,0.0297,0.028,0.0281,0.0268,0.0256,0.0251,0.0224,0.0218,0.0219,0.0198,0.0195,0.0196,0.0168,0.0168,0.0222,0.0228,0.0234,0.0257,0.0167,0,0,0,0,0,0.0313,0.0322,0.0312,0.032,0.0319,0.03,0.0296,0.0285,0.0273,0.0267,0.0249,0.0229,0.0219,0.0214,0.0199,0.0203,0.0191,0.0209,0.0214,0.0219,0.0234,0.0241,0.025,0.0159,0.0159,0.0159,0,0,0.032,0.0319,0.0323,0.0324,0.0315,0.0328,0.0297,0.0297,0.0313,0.0264,0.0277,0.0248,0.0223,0.0227,0.0226,0.0213,0.0235,0.0221,0.0225,0.0238,0.0243,0.0252,0.0261,0.016,0.016,0.0159,0,0,0.0348,0.0339,0.0359,0.036,0.0356,0.0347,0.0351,0.0338,0.0337,0.0343,0.0312,0.0299,0.0281,0.0271,0.0263,0.029,0.0264,0.0278,0.033,0.0337,0.0345,0.0352,0.0338,0.0343,0.0283,0.0283,0.0283,0,0.0356,0.0382,0.0364,0.0386,0.0397,0.0361,0.0391,0.0386,0.0374,0.0385,0.0357,0.0342,0.0308,0.0329,0.0327,0.0306,0.0297,0.0309,0.0347,0.0353,0.0359,0.0343,0.0348,0.0287,0.0286,0.0286,0.0286,0,0.0404,0.0423,0.0435,0.0454,0.0462,0.0478,0.0474,0.048,0.0468,0.0463,0.0476,0.0433,0.0432,0.0408,0.0371,0.0397,0.0372,0.0353,0.0335,0.0373,0.0353,0.0357,0.0292,0.0291,0.029,0.0289,0,0,0.0432,0.0465,0.047,0.0501,0.0502,0.0521,0.0546,0.057,0.0609,0.0577,0.0631,0.0578,0.0553,0.0541,0.0497,0.0484,0.0495,0.0435,0.0434,0.0432,0.0499,0.0451,0.045,0.0486,0.0487,0.0488,0.0465,0,0.0477,0.0544,0.0543,0.0605,0.0642,0.0628,0.0667,0.068,0.0683,0.0722,0.068,0.0706,0.0608,0.0618,0.0588,0.0534,0.051,0.0502,0.0454,0.0452,0.0414,0.0455,0.0459,0.0436,0.0468,0.0469,0.0469,0,0.0528,0.0571,0.0642,0.0708,0.0724,0.0751,0.0816,0.0849,0.0877,0.0887,0.0888,0.086,0.0846,0.076,0.0685,0.0687,0.0596,0.0534,0.0532,0.0469,0.0412,0.0404,0.0441,0.0306,0.0474,0.0474,0.0474,0,0.0576,0.0643,0.0708,0.0728,0.0788,0.0825,0.086,0.0897,0.0965,0.1004,0.1063,0.1016,0.1039,0.0924,0.0779,0.0744,0.0693,0.0635,0.0501,0.0496,0.0481,0.0472,0.0394,0.0578,0.0578,0.0578,0.0578,0,0.0632,0.0685,0.0739,0.0778,0.0877,0.0893,0.1003,0.1029,0.1109,0.1224,0.1161,0.1251,0.1084,0.1031,0.0855,0.0703,0.0756,0.0524,0.0498,0.0503,0.0497,0.0361,0.0268,0.0577,0.0577,0.0577,0.0578,0,0.0675,0.0703,0.0791,0.0869,0.0901,0.0976,0.1106,0.12,0.1254,0.1409,0.1442,0.1451,0.1386,0.119,0.1023,0.0833,0.058,0.0592,0.0595,0.0568,0.0292,0.0202,0.0077,0.0014,0.0445,0.0444,0.0443,0,0.0704,0.0751,0.086,0.0929,0.0967,0.1083,0.118,0.1263,0.1381,0.155,0.1647,0.1637,0.1661,0.1384,0.1044,0.0739,0.0572,0.0524,0.0442,0.0291,0.0172,0.0105,0.0057,0.0445,0.0444,0.0444,0.0443,0,0.0766,0.0797,0.0873,0.1017,0.1124,0.1264,0.1407,0.152,0.1659,0.1807,0.1986,0.2022,0.1765,0.147,0.1028,0.0809,0.0422,0.0497,0.036,0.0183,0.009,0.0013,0.0427,0.0437,0.0437,0.0438,0.0438,0.0438,0.081,0.0878,0.0981,0.1119,0.1252,0.1428,0.156,0.174,0.1953,0.2188,0.2214,0.2292,0.1845,0.1252,0.0947,0.0374,0.036,0.019,0.0099,0.005,-0.0027,0.0356,0.032,0.032,0.032,0.032,0.032,0,0.0875,0.0955,0.1085,0.1254,0.1412,0.1471,0.1708,0.1864,0.2129,0.2325,0.2481,0.2268,0.1749,0.1192,0.0401,0.0039,-0.0075,-0.0144,-0.0225,-0.0252,0.0117,0.0101,-0.0005,-0.0005,-0.0005,-0.0005,-0.0005,-0.0004,0.0914,0.1039,0.1108,0.1356,0.1483,0.1704,0.1843,0.2078,0.2251,0.2474,0.2491,0.2469,0.1995,0.0703,-0.0118,-0.0283,-0.051,-0.058,-0.0685,-0.0428,-0.0403,-0.0379,-0.0414,-0.0626,-0.0627,-0.0992,-0.0996,-0.0999]}],[{"header":{"parameterUnit":"m.s-1","parameterCategory":2,"la1":30.2991,"la2":30.254,"lo1":-89.0895,"lo2":-89.0444,"dy":0.0017,"dx":0.0017,"nx":28,"ny":28,"refTime":"2025-06-22T21:00:00:Z","depth":"2","parameterNumber":2,"parameterNumberName":"U-component_of_CURRENTS"},"data":[0,0,0,0,0,0,0,0,0,0,0,0,0,0,0,0,0,0,0,0,0,0,0,0,0,0,0,0,0,0,0,0,0,0,0,0,0,0,0,0,0,0,0,0,0,0,0,0,0,0,0,0,0,0,0,0,0,0,0.2824,0.2824,0,0.2835,0.2835,0.2835,0.2825,0.2825,0.2825,0.2824,0.2822,0.2822,0.2822,0,0,0,0,0,0,0,0,0,0,0,0,0,0.2816,0.2816,0.2824,0.2824,0.2825,0.2835,0.2835,0.2835,0.2825,0.2825,0.2824,0.2824,0.2822,0.2822,0.2822,0,0,0,0,0,0,0,0,0,0,0,0,0,0.2821,0.2816,0.2824,0.2822,0.2822,0.2835,0.2835,0.2835,0.2825,0.2825,0.2824,0.2824,0.2822,0.2822,0.2822,0.2831,0,0,0.2823,0.2823,0,0,0,0,0,0,0,0,0.282,0.2821,0.2822,0.2822,0.2823,0.283,0.2831,0.2833,0.2825,0.2822,0.2824,0.2824,0.2825,0.2825,0.2825,0.2831,0.283,0.2823,0.2823,0.2823,0.2823,0,0,0,0,0,0,0,0.282,0.282,0.2826,0.2823,0.2823,0.2829,0.2828,0.2832,0.2824,0.2822,0.2822,0.2826,0.2825,0.2825,0.2825,0.283,0.2823,0.2823,0.2823,0.2823,0.29,0.2902,0,0,0,0,0,0,0.2822,0.282,0.2826,0.2827,0.2823,0.2829,0.2829,0.2826,0.2824,0.2824,0.2827,0.2826,0.2825,0.2825,0.2825,0.2879,0.2823,0.2823,0.2824,0.2898,0.29,0.2903,0,0,0,0,0,0,0.2821,0.2822,0.2826,0.2826,0.2827,0.283,0.2827,0.2827,0.2838,0.2828,0.2827,0.2839,0.2824,0.2825,0.2846,0.2877,0.2824,0.2824,0.2896,0.2899,0.2902,0.2959,0,0,0,0,0,0,0.2821,0.2821,0.2826,0.2825,0.2827,0.2843,0.2828,0.2827,0.2841,0.2841,0.2838,0.2837,0.2824,0.2846,0.2847,0.2877,0.2824,0.2894,0.2897,0.2901,0.2955,0.2963,0.2971,0,0,0,0,0,0.282,0.2826,0.2826,0.2828,0.2831,0.2844,0.2845,0.2845,0.2842,0.2852,0.2856,0.2837,0.2869,0.2848,0.2848,0.2878,0.2892,0.2896,0.29,0.2951,0.2962,0.2971,0,0,0,0,0,0,0.2825,0.2826,0.2826,0.2832,0.2843,0.2843,0.2854,0.2855,0.2866,0.2869,0.2856,0.2856,0.2889,0.2879,0.2856,0.2914,0.288,0.2884,0.2919,0.2929,0.2937,0.2941,0.2824,0,0,0,0,0,0.2829,0.2833,0.2839,0.2846,0.2853,0.2857,0.2865,0.2867,0.2874,0.2879,0.2878,0.2886,0.2906,0.2913,0.2922,0.2949,0.2967,0.2972,0.2981,0.2987,0.2993,0.3068,0.3084,0.2917,0.2917,0.2916,0,0,0.2832,0.2835,0.2837,0.2848,0.2855,0.2872,0.2861,0.2879,0.2898,0.2878,0.2904,0.2913,0.292,0.2954,0.2968,0.2949,0.3044,0.2993,0.2998,0.3,0.3075,0.3091,0.3105,0.2919,0.2919,0.2918,0,0,0.2843,0.2846,0.2855,0.2868,0.2886,0.2893,0.2902,0.2913,0.2924,0.2954,0.2951,0.2981,0.2998,0.3013,0.3023,0.3084,0.3086,0.309,0.3132,0.3205,0.3219,0.3232,0.3271,0.3287,0.3092,0.3093,0.3093,0,0.2849,0.2855,0.2862,0.2879,0.2894,0.2905,0.2925,0.2942,0.296,0.2983,0.2972,0.3034,0.303,0.3089,0.3105,0.3102,0.3135,0.309,0.3216,0.3229,0.3241,0.3278,0.3295,0.3096,0.3096,0.3095,0.3095,0,0.2864,0.2877,0.2887,0.291,0.2932,0.295,0.2976,0.3004,0.3022,0.3042,0.3105,0.3113,0.3155,0.316,0.3146,0.3233,0.3225,0.3218,0.3189,0.3262,0.3296,0.3312,0.3101,0.3099,0.3098,0.3098,0,0,0.2853,0.2888,0.2891,0.2905,0.2948,0.2961,0.3015,0.3062,0.3104,0.3138,0.3201,0.3234,0.3251,0.3265,0.3264,0.3313,0.3414,0.3302,0.3305,0.3337,0.3567,0.3471,0.348,0.3439,0.3442,0.3445,0.3554,0,0.286,0.2888,0.2912,0.2946,0.2962,0.3004,0.305,0.3103,0.3151,0.3216,0.326,0.3317,0.329,0.332,0.3371,0.3411,0.3462,0.3384,0.3495,0.3498,0.3402,0.3497,0.3193,0.3257,0.357,0.3572,0.3574,0,0.2858,0.288,0.2909,0.2959,0.2972,0.3002,0.3085,0.313,0.3234,0.3281,0.3363,0.3402,0.3489,0.3452,0.3574,0.3532,0.3555,0.3574,0.3579,0.3481,0.3433,0.3237,0.3275,0.3602,0.3599,0.3597,0.3596,0,0.2824,0.2872,0.2892,0.2908,0.2973,0.3007,0.3052,0.315,0.3213,0.3335,0.3407,0.3507,0.3576,0.3641,0.3681,0.365,0.3804,0.3768,0.3703,0.3695,0.345,0.3415,0.3859,0.3859,0.3859,0.3858,0.3858,0,0.2806,0.282,0.2875,0.2883,0.2925,0.2985,0.3057,0.3122,0.3251,0.3335,0.3438,0.3529,0.3632,0.3726,0.374,0.3779,0.3865,0.373,0.3732,0.346,0.3426,0.373,0.3714,0.3862,0.3862,0.3861,0.386,0,0.2755,0.2789,0.2814,0.2881,0.2903,0.2935,0.3053,0.3112,0.3241,0.3365,0.3417,0.359,0.3708,0.3785,0.3894,0.3851,0.3893,0.3876,0.3533,0.3491,0.3716,0.3702,0.3828,0.3826,0.3824,0.3822,0.3821,0,0.2727,0.2734,0.2796,0.2816,0.2844,0.2908,0.2956,0.3087,0.3168,0.3387,0.3445,0.3618,0.3694,0.3824,0.3796,0.3817,0.389,0.353,0.3407,0.3732,0.3721,0.3709,0.3697,0.3105,0.3098,0.3092,0.3087,0,0.2681,0.2704,0.2726,0.2773,0.2812,0.2853,0.2939,0.3001,0.3164,0.3263,0.3396,0.3478,0.3611,0.3501,0.354,0.3504,0.3501,0.3413,0.3878,0.3156,0.3058,0.3044,0.3055,0.3036,0.3041,0.3045,0.3048,0.305,0.2647,0.2649,0.2687,0.2719,0.2758,0.2776,0.2774,0.2873,0.2952,0.3053,0.3222,0.323,0.328,0.3188,0.3094,0.3017,0.3258,0.309,0.3104,0.3126,0.3019,0.2923,0.2855,0.2858,0.2862,0.2865,0.2867,0,0.2597,0.261,0.2638,0.2643,0.2623,0.2693,0.274,0.2703,0.2714,0.2833,0.2889,0.2675,0.2619,0.2675,0.2476,0.2466,0.241,0.236,0.2257,0.2311,0.2359,0.2208,0.1831,0.1828,0.1825,0.1822,0,0,0.2573,0.2559,0.2563,0.2499,0.2507,0.245,0.2442,0.2392,0.2427,0.2367,0.2345,0.2539,0.2625,0.2213,0.2147,0.1957,0.2117,0.1875,0.2713,0.265,0.2693,0.2795,0.2627,0,0,0,0,0]},{"header":{"parameterUnit":"m.s-1","parameterCategory":2,"la1":30.2991,"la2":30.254,"lo1":-89.0895,"lo2":-89.0444,"dy":0.0017,"dx":0.0017,"nx":28,"ny":28,"refTime":"2025-06-22T21:00:00:Z","depth":"2","parameterNumber":3,"parameterNumberName":"V-component_of_CURRENTS"},"data":[0,0,0,0,0,0,0,0,0,0,0,0,0,0,0,0,0,0,0,0,0,0,0,0,0,0,0,0,0,0,0,0,0,0,0,0,0,0,0,0,0,0,0,0,0,0,0,0,0,0,0,0,0,0,0,0,0,0,0.0159,0.0159,0,0.0128,0.0127,0.0127,0.01,0.01,0.01,0.0099,0.006,0.0059,0.0058,0,0,0,0,0,0,0,0,0,0,0,0,0,0.0163,0.0163,0.0159,0.0159,0.0158,0.0128,0.0127,0.0127,0.01,0.01,0.01,0.0099,0.006,0.0059,0.0058,0,0,0,0,0,0,0,0,0,0,0,0,0,0.0149,0.0163,0.0159,0.0142,0.014,0.0128,0.0127,0.0127,0.01,0.01,0.01,0.0099,0.006,0.0059,0.0058,0.0057,0,0,0.0054,0.0054,0,0,0,0,0,0,0,0,0.015,0.0149,0.0145,0.0143,0.0141,0.0118,0.0114,0.0103,0.01,0.0115,0.0099,0.0099,0.0079,0.0077,0.007,0.0055,0.0053,0.0054,0.0053,0.0053,0.0052,0,0,0,0,0,0,0,0.0151,0.015,0.0146,0.0145,0.0142,0.0125,0.0123,0.0112,0.0098,0.0113,0.0112,0.0109,0.0078,0.0072,0.0069,0.0053,0.0054,0.0053,0.0052,0.0052,0.0038,0.0039,0,0,0,0,0,0,0.0158,0.0151,0.0147,0.0145,0.0146,0.0125,0.0123,0.0125,0.0099,0.0095,0.011,0.0108,0.0074,0.0071,0.0068,0.0082,0.0053,0.0051,0.0051,0.0038,0.0038,0.0039,0,0,0,0,0,0,0.0159,0.0159,0.0148,0.0147,0.0145,0.0126,0.0129,0.0125,0.0121,0.0096,0.0092,0.011,0.0074,0.0069,0.0065,0.0079,0.0051,0.005,0.0037,0.0038,0.0039,0.0099,0,0,0,0,0,0,0.0159,0.0159,0.0163,0.0148,0.0145,0.015,0.0129,0.0124,0.012,0.0118,0.0095,0.0091,0.0073,0.0067,0.0064,0.0077,0.0049,0.0037,0.0038,0.0038,0.0096,0.0101,0.0106,0,0,0,0,0,0.0159,0.0171,0.0163,0.0163,0.0152,0.0151,0.0148,0.0132,0.0121,0.0126,0.0109,0.0091,0.007,0.0067,0.0063,0.0076,0.0037,0.0038,0.0038,0.0094,0.01,0.0106,0,0,0,0,0,0,0.0173,0.0169,0.016,0.0169,0.0164,0.0147,0.0148,0.0137,0.0127,0.0123,0.0099,0.0094,0.0094,0.0076,0.0074,0.0073,0.0049,0.005,0.0093,0.0099,0.0103,0.0122,0.0048,0,0,0,0,0,0.0178,0.0186,0.0177,0.0184,0.0183,0.0166,0.0162,0.0153,0.0142,0.0137,0.0121,0.0104,0.0094,0.009,0.0076,0.0079,0.0059,0.0083,0.0088,0.0092,0.0104,0.0088,0.0093,0.0042,0.0042,0.0042,0,0,0.0184,0.0183,0.0187,0.0187,0.0179,0.019,0.0163,0.0163,0.0177,0.0134,0.0145,0.012,0.0097,0.01,0.0098,0.0088,0.0093,0.0093,0.0097,0.0107,0.0089,0.0094,0.0099,0.0043,0.0042,0.0042,0,0,0.0207,0.02,0.0218,0.0219,0.0215,0.0207,0.021,0.0199,0.0199,0.0204,0.0176,0.0162,0.0148,0.0136,0.0127,0.015,0.0117,0.0141,0.0185,0.0169,0.0173,0.0177,0.0149,0.0149,0.0146,0.0146,0.0146,0,0.0214,0.0237,0.0222,0.0241,0.025,0.022,0.0244,0.024,0.023,0.0237,0.0216,0.0195,0.0168,0.0178,0.018,0.0163,0.0143,0.0167,0.0176,0.0179,0.0182,0.0152,0.0152,0.0149,0.0149,0.0149,0.0148,0,0.0254,0.0271,0.0281,0.0298,0.0304,0.0318,0.0314,0.0319,0.0309,0.0303,0.0307,0.027,0.026,0.0243,0.0218,0.0225,0.0201,0.0183,0.0165,0.0191,0.0157,0.0156,0.0154,0.0153,0.0152,0.0151,0,0,0.0278,0.0306,0.031,0.0335,0.0338,0.0353,0.0374,0.0392,0.0419,0.0391,0.0423,0.0384,0.0356,0.0344,0.0306,0.0286,0.0274,0.0246,0.0243,0.0224,0.0231,0.0196,0.019,0.0258,0.0258,0.0258,0.0197,0,0.0315,0.0372,0.0371,0.0423,0.0453,0.0441,0.0472,0.0481,0.0479,0.05,0.0458,0.0468,0.0398,0.0398,0.0364,0.0305,0.0275,0.0292,0.0203,0.0201,0.0172,0.019,0.021,0.0156,0.0195,0.0195,0.0195,0,0.0358,0.0395,0.0455,0.0507,0.0519,0.0542,0.0589,0.0616,0.0626,0.0627,0.0612,0.0578,0.0548,0.0487,0.0393,0.0407,0.0324,0.0266,0.0262,0.0211,0.0164,0.0137,0.0151,0.0193,0.0193,0.0193,0.0193,0,0.0398,0.0454,0.0509,0.0525,0.0574,0.0603,0.0631,0.0654,0.0704,0.0713,0.0743,0.0683,0.0676,0.057,0.0434,0.0419,0.0325,0.029,0.0177,0.0173,0.0164,0.0159,0.0222,0.0222,0.0222,0.0222,0.0222,0,0.0445,0.0489,0.0536,0.0568,0.0648,0.0662,0.0745,0.0761,0.0812,0.0888,0.0816,0.0856,0.0698,0.0621,0.0478,0.0327,0.0355,0.0191,0.0161,0.0183,0.0181,0.0194,0.0192,0.022,0.022,0.0221,0.0221,0,0.0481,0.0506,0.0579,0.0643,0.0669,0.0732,0.083,0.0899,0.0927,0.1026,0.104,0.0994,0.0896,0.0719,0.0549,0.0398,0.0249,0.0183,0.0211,0.0185,0.0093,0.0094,0.0059,0.0057,0.0056,0.0054,0.0053,0,0.0505,0.0545,0.0637,0.0694,0.0726,0.082,0.0895,0.0953,0.1041,0.1121,0.1183,0.1114,0.1083,0.0804,0.0538,0.0282,0.0244,0.0114,0.0084,0.0105,0.0079,0.0082,0.0086,0.009,0.0089,0.0089,0.0088,0,0.0555,0.0583,0.0648,0.0767,0.0852,0.0962,0.1075,0.1164,0.1255,0.1329,0.1408,0.1386,0.113,0.0875,0.051,0.0332,0.0154,0.0095,0.0126,0.0127,0.0129,0.0105,0.0108,0.0084,0.0085,0.0085,0.0085,0.0085,0.0592,0.0647,0.0734,0.0849,0.0954,0.1096,0.1202,0.133,0.1472,0.1597,0.1564,0.1533,0.1231,0.0776,0.0458,0.0123,0.0143,0.0012,0.0016,0.002,0.0033,0.0033,-0.0028,-0.0029,-0.0029,-0.0029,-0.0029,0,0.0644,0.0709,0.0814,0.095,0.1072,0.1126,0.1319,0.1429,0.1601,0.1692,0.1738,0.1445,0.1161,0.0819,0.0328,0.0027,0.001,-0.0078,-0.003,-0.0023,-0.0018,-0.0005,-0.0078,-0.0079,-0.008,-0.0081,0,0,0.0672,0.0771,0.0825,0.102,0.1126,0.1304,0.1422,0.1575,0.1685,0.1759,0.1743,0.1689,0.1275,0.0906,0.0498,0.0215,0.0164,0.0152,0.0224,0.0335,0.0344,0.0064,0.0095,0,0,0,0,0]}],[{"header":{"parameterUnit":"m.s-1","parameterCategory":2,"la1":30.2991,"la2":30.254,"lo1":-89.0895,"lo2":-89.0444,"dy":0.0017,"dx":0.0017,"nx":28,"ny":28,"refTime":"2025-06-22T21:00:00:Z","depth":"4","parameterNumber":2,"parameterNumberName":"U-component_of_CURRENTS"},"data":[0,0,0,0,0,0,0,0,0,0,0,0,0,0,0,0,0,0,0,0,0,0,0,0,0,0,0,0,0,0,0,0,0,0,0,0,0,0,0,0,0,0,0,0,0,0,0,0,0,0,0,0,0,0,0,0,0,0,0.1849,0.185,0,0.1901,0.1901,0.1902,0.1953,0.1954,0.1955,0.1956,0.2025,0.2026,0.2027,0,0,0,0,0,0,0,0,0,0,0,0,0,0.1796,0.1797,0.1849,0.185,0.1851,0.1901,0.1901,0.1902,0.1953,0.1954,0.1955,0.1956,0.2024,0.2026,0.2027,0,0,0,0,0,0,0,0,0,0,0,0,0,0.1829,0.1797,0.1849,0.1884,0.1888,0.1901,0.1901,0.1902,0.1953,0.1954,0.1955,0.1957,0.2024,0.2025,0.2027,0.2011,0,0,0.2032,0.2032,0,0,0,0,0,0,0,0,0.1827,0.1831,0.1878,0.1881,0.1886,0.1923,0.1908,0.194,0.1953,0.1926,0.1956,0.1957,0.1993,0.1997,0.2001,0.2014,0.2017,0.2032,0.2033,0.2034,0.2034,0,0,0,0,0,0,0,0.1825,0.1829,0.1868,0.1879,0.1883,0.1897,0.1903,0.1914,0.1951,0.1929,0.1933,0.1941,0.1995,0.1999,0.2003,0.2018,0.2032,0.2033,0.2034,0.2035,0.2147,0.2149,0,0,0,0,0,0,0.182,0.1826,0.1866,0.187,0.1861,0.1897,0.1904,0.1909,0.195,0.1958,0.194,0.1943,0.1996,0.2001,0.2006,0.2097,0.2034,0.2035,0.2036,0.2145,0.2148,0.215,0,0,0,0,0,0,0.1819,0.1823,0.1864,0.1851,0.1857,0.1897,0.1902,0.1909,0.1954,0.1959,0.1967,0.1982,0.1997,0.2004,0.2055,0.2096,0.2036,0.2037,0.2143,0.2146,0.2149,0.2211,0,0,0,0,0,0,0.1817,0.1822,0.1845,0.185,0.1858,0.1897,0.1901,0.1909,0.1955,0.1961,0.1997,0.2002,0.1999,0.2053,0.2056,0.2097,0.2038,0.214,0.2144,0.2148,0.2206,0.2216,0.2224,0,0,0,0,0,0.1815,0.1832,0.1845,0.1852,0.1881,0.1898,0.1904,0.1934,0.1956,0.1979,0.2011,0.2003,0.208,0.2055,0.2059,0.2102,0.2138,0.2143,0.2147,0.2202,0.2214,0.2224,0,0,0,0,0,0,0.1823,0.1839,0.1854,0.1877,0.19,0.1908,0.1938,0.1956,0.1998,0.2019,0.2024,0.2031,0.2092,0.209,0.2063,0.2147,0.211,0.2116,0.2151,0.2161,0.217,0.217,0.204,0,0,0,0,0,0.1833,0.1854,0.1868,0.1893,0.1907,0.1931,0.1951,0.1971,0.1998,0.202,0.2045,0.2077,0.2106,0.213,0.215,0.2192,0.2197,0.2225,0.2234,0.2241,0.2245,0.23,0.2314,0.2165,0.2165,0.2165,0,0,0.1845,0.1858,0.1872,0.1898,0.192,0.1943,0.1947,0.1988,0.202,0.2019,0.2086,0.2109,0.2125,0.2176,0.2203,0.2185,0.2286,0.2247,0.2253,0.2253,0.2306,0.2321,0.2334,0.2168,0.2167,0.2167,0,0,0.1862,0.189,0.191,0.1931,0.197,0.1982,0.2002,0.2034,0.2068,0.2122,0.2135,0.2186,0.223,0.2249,0.2263,0.2333,0.2329,0.2349,0.2395,0.2448,0.2461,0.2472,0.2489,0.2501,0.2355,0.2355,0.2355,0,0.1881,0.19,0.1921,0.1944,0.197,0.2003,0.2031,0.2063,0.2112,0.2147,0.2158,0.2249,0.2263,0.2323,0.2351,0.2353,0.2374,0.235,0.2459,0.247,0.248,0.2496,0.2508,0.2358,0.2358,0.2357,0.2357,0,0.1896,0.193,0.1946,0.1985,0.2017,0.2049,0.2087,0.2137,0.2186,0.2217,0.2305,0.2331,0.2388,0.2403,0.2398,0.2482,0.2469,0.2462,0.2429,0.2499,0.2511,0.2523,0.2363,0.2362,0.2361,0.236,0,0,0.1885,0.1945,0.1956,0.1982,0.2043,0.2063,0.2134,0.2194,0.2249,0.2314,0.2385,0.2446,0.2478,0.2496,0.2508,0.255,0.2635,0.2545,0.2546,0.2555,0.2742,0.2561,0.2556,0.2658,0.266,0.2662,0.2718,0,0.1895,0.1938,0.1972,0.2028,0.2053,0.2114,0.2169,0.2237,0.2304,0.238,0.2438,0.2507,0.2509,0.2549,0.2599,0.2629,0.2672,0.2619,0.2678,0.2679,0.2504,0.2565,0.2671,0.2726,0.2729,0.2731,0.2733,0,0.1887,0.1921,0.1975,0.2047,0.2067,0.2115,0.2217,0.2273,0.2383,0.244,0.2532,0.2575,0.2662,0.2647,0.2751,0.2725,0.2745,0.2757,0.2759,0.2574,0.252,0.2645,0.2754,0.2752,0.275,0.2749,0.2748,0,0.1844,0.1918,0.1964,0.1989,0.2077,0.2133,0.2194,0.2303,0.2362,0.2492,0.255,0.2655,0.2724,0.2779,0.2821,0.2804,0.2913,0.2887,0.2739,0.2725,0.2844,0.2832,0.2958,0.2958,0.2958,0.2958,0.2958,0,0.1811,0.1852,0.1955,0.1976,0.2044,0.2122,0.221,0.2289,0.2407,0.2471,0.2587,0.2647,0.2768,0.2839,0.2856,0.2831,0.2952,0.275,0.2733,0.2867,0.2857,0.2851,0.2838,0.296,0.296,0.2959,0.2959,0,0.1745,0.1812,0.187,0.1981,0.2022,0.2076,0.2209,0.2257,0.2392,0.2482,0.2528,0.2679,0.2762,0.2843,0.2931,0.2857,0.2855,0.2818,0.2951,0.2941,0.2619,0.2609,0.2641,0.2635,0.2631,0.2626,0.2623,0,0.1708,0.1734,0.1861,0.1895,0.1952,0.2046,0.2096,0.2237,0.2282,0.2472,0.2489,0.2638,0.2714,0.2691,0.2794,0.2804,0.2777,0.2747,0.2677,0.2609,0.2591,0.2588,0.2585,0.2615,0.2614,0.2613,0.2611,0,0.164,0.1707,0.1753,0.182,0.1883,0.1935,0.2021,0.2041,0.2191,0.234,0.2388,0.2434,0.2523,0.2579,0.2612,0.2617,0.2745,0.2695,0.2704,0.2637,0.2578,0.2564,0.2566,0.2594,0.2597,0.2598,0.2599,0,0.1598,0.1611,0.1679,0.1717,0.1785,0.1785,0.1854,0.1897,0.1964,0.2163,0.2183,0.2342,0.2498,0.2484,0.2516,0.2504,0.2459,0.2362,0.2388,0.2408,0.2305,0.2194,0.2081,0,0,0,0,0,0.1543,0.1532,0.1561,0.158,0.1635,0.1674,0.1772,0.1841,0.1994,0.1965,0.2064,0.2131,0.2187,0.2278,0.2218,0.241,0.2467,0.2328,0.2368,0.2499,0.2519,0.242,0,0,0,0,0,0,0.15,0.153,0.1516,0.1448,0.1438,0.1475,0.1536,0.1645,0.1633,0.181,0.1854,0.1993,0.2084,0.2199,0.2177,0.22,0.2177,0.2433,0.2427,0.2488,0.2506,0.2522,0.2427,0,0,0,0,0]},{"header":{"parameterUnit":"m.s-1","parameterCategory":2,"la1":30.2991,"la2":30.254,"lo1":-89.0895,"lo2":-89.0444,"dy":0.0017,"dx":0.0017,"nx":28,"ny":28,"refTime":"2025-06-22T21:00:00:Z","depth":"4","parameterNumber":3,"parameterNumberName":"V-component_of_CURRENTS"},"data":[0,0,0,0,0,0,0,0,0,0,0,0,0,0,0,0,0,0,0,0,0,0,0,0,0,0,0,0,0,0,0,0,0,0,0,0,0,0,0,0,0,0,0,0,0,0,0,0,0,0,0,0,0,0,0,0,0,0,0.0103,0.0103,0,0.0083,0.0083,0.0083,0.0065,0.0065,0.0065,0.0065,0.0037,0.0037,0.0036,0,0,0,0,0,0,0,0,0,0,0,0,0,0.0104,0.0104,0.0103,0.0103,0.0103,0.0083,0.0083,0.0083,0.0065,0.0065,0.0065,0.0065,0.0038,0.0037,0.0036,0,0,0,0,0,0,0,0,0,0,0,0,0,0.0096,0.0104,0.0103,0.0092,0.0091,0.0083,0.0083,0.0083,0.0065,0.0065,0.0065,0.0065,0.0038,0.0037,0.0036,0.0036,0,0,0.0034,0.0033,0,0,0,0,0,0,0,0,0.0096,0.0095,0.0094,0.0093,0.0091,0.0077,0.0073,0.0067,0.0065,0.0075,0.0065,0.0064,0.005,0.0048,0.0045,0.0035,0.0034,0.0034,0.0033,0.0033,0.0032,0,0,0,0,0,0,0,0.0097,0.0096,0.0095,0.0093,0.0092,0.008,0.0079,0.0072,0.0064,0.0074,0.0073,0.0071,0.005,0.0046,0.0044,0.0033,0.0034,0.0033,0.0032,0.0032,0.0026,0.0026,0,0,0,0,0,0,0.0101,0.0097,0.0096,0.0094,0.0093,0.0081,0.0079,0.0081,0.0064,0.0061,0.0071,0.007,0.0047,0.0045,0.0043,0.0054,0.0033,0.0032,0.0031,0.0025,0.0026,0.0026,0,0,0,0,0,0,0.0101,0.0102,0.0096,0.0095,0.0094,0.0081,0.0084,0.0081,0.0079,0.0062,0.0059,0.0072,0.0047,0.0044,0.0043,0.0052,0.0032,0.0031,0.0025,0.0025,0.0026,0.0068,0,0,0,0,0,0,0.0102,0.0102,0.0106,0.0096,0.0094,0.0099,0.0084,0.0081,0.0079,0.0077,0.0062,0.0059,0.0047,0.0044,0.0042,0.0051,0.003,0.0024,0.0025,0.0026,0.0066,0.007,0.0073,0,0,0,0,0,0.0102,0.011,0.0106,0.0106,0.01,0.01,0.0098,0.0087,0.0079,0.0084,0.0073,0.006,0.0047,0.0044,0.0042,0.005,0.0024,0.0025,0.0026,0.0065,0.0069,0.0073,0,0,0,0,0,0,0.0111,0.0109,0.0104,0.0111,0.0108,0.0097,0.0099,0.0091,0.0086,0.0084,0.0066,0.0063,0.0064,0.0051,0.0049,0.0049,0.0032,0.0033,0.0063,0.0067,0.0071,0.0082,0.0029,0,0,0,0,0,0.0116,0.0123,0.0117,0.0122,0.0122,0.0111,0.0109,0.0103,0.0096,0.0093,0.0083,0.0071,0.0065,0.0062,0.0053,0.0056,0.0033,0.0058,0.0061,0.0065,0.0072,0.0046,0.0048,0.0028,0.0028,0.0028,0,0,0.012,0.012,0.0123,0.0125,0.012,0.0129,0.011,0.0111,0.0122,0.0091,0.0102,0.0084,0.0068,0.007,0.0069,0.0062,0.0057,0.0065,0.0068,0.0074,0.0047,0.0049,0.005,0.0029,0.0029,0.0029,0,0,0.0136,0.0133,0.0146,0.0148,0.0147,0.0142,0.0145,0.0138,0.0139,0.0145,0.0125,0.0114,0.0107,0.0096,0.0089,0.0106,0.0075,0.0102,0.013,0.0105,0.0107,0.0108,0.0076,0.0073,0.0104,0.0104,0.0104,0,0.0142,0.0158,0.0149,0.0164,0.0171,0.0152,0.017,0.0169,0.0163,0.0168,0.0156,0.0138,0.0121,0.0122,0.0126,0.0115,0.0092,0.0117,0.011,0.011,0.0111,0.0078,0.0075,0.0107,0.0106,0.0106,0.0106,0,0.0169,0.0183,0.0191,0.0205,0.0211,0.0222,0.0222,0.0227,0.0222,0.0217,0.0217,0.0191,0.0181,0.017,0.0154,0.015,0.013,0.0116,0.0101,0.0115,0.0079,0.0075,0.011,0.0109,0.0108,0.0108,0,0,0.0183,0.0207,0.0211,0.023,0.0236,0.0248,0.0265,0.0277,0.0295,0.0277,0.0294,0.0268,0.0246,0.0237,0.0209,0.0185,0.016,0.0155,0.0153,0.0126,0.0098,0.008,0.0073,0.0145,0.0145,0.0144,0.007,0,0.0209,0.025,0.0253,0.0293,0.0315,0.031,0.0334,0.034,0.0339,0.0349,0.0314,0.0317,0.0275,0.0271,0.0239,0.0185,0.0153,0.0181,0.0086,0.0084,0.0067,0.007,0.0144,0.0067,0.0066,0.0065,0.0065,0,0.0237,0.0265,0.0311,0.0351,0.0361,0.0381,0.0415,0.0436,0.0437,0.0436,0.0419,0.0388,0.0354,0.0316,0.0226,0.0245,0.0177,0.0127,0.0122,0.009,0.0059,0.005,0.0057,0.0058,0.0059,0.0059,0.006,0,0.026,0.0305,0.0347,0.036,0.0399,0.0423,0.0447,0.0462,0.0497,0.0492,0.0503,0.0449,0.0436,0.0343,0.0234,0.023,0.0126,0.0108,0.0024,0.0021,0.0041,0.004,0.004,0.004,0.004,0.004,0.0041,0,0.0288,0.0323,0.0365,0.039,0.0452,0.0466,0.0528,0.0539,0.0571,0.0616,0.0554,0.0564,0.0443,0.0367,0.0253,0.0128,0.0138,0.003,0.0003,0.0059,0.0062,0.0037,0.0038,0.0037,0.0038,0.0039,0.0039,0,0.0306,0.033,0.0386,0.0441,0.0465,0.0513,0.0592,0.0639,0.0653,0.0709,0.0711,0.0656,0.0556,0.0417,0.0269,0.0166,0.0038,-0.0013,0.0055,0.0033,-0.0058,-0.0054,-0.0109,-0.0111,-0.0112,-0.0112,-0.0113,0,0.0318,0.0348,0.0427,0.0473,0.0502,0.0577,0.0637,0.0681,0.0735,0.0765,0.0794,0.0717,0.0657,0.0435,0.0278,0.0054,0.0018,-0.0059,-0.0059,-0.0052,-0.0072,-0.0066,-0.0061,-0.0115,-0.0115,-0.0115,-0.0116,0,0.0342,0.037,0.042,0.0515,0.0586,0.0674,0.0757,0.0802,0.086,0.0868,0.0865,0.0749,0.0634,0.0449,0.0272,0.0111,-0.0015,-0.007,-0.0069,-0.007,-0.0059,-0.0077,-0.0071,-0.0119,-0.0119,-0.0118,-0.0118,0,0.0362,0.0401,0.0469,0.0556,0.0649,0.0746,0.0788,0.0853,0.0904,0.093,0.0926,0.0794,0.0724,0.0479,0.0317,0.0153,0.0108,0.0043,0.0037,0.0039,0.0097,0.0134,0.0114,0,0,0,0,0,0.0383,0.0431,0.0508,0.0605,0.0699,0.0758,0.0861,0.0899,0.0947,0.0955,0.0946,0.0836,0.0605,0.0505,0.034,0.0282,0.0068,0.008,-0.0012,-0.0139,-0.0135,-0.0094,0,0,0,0,0,0,0.0396,0.0467,0.0506,0.063,0.0703,0.0816,0.0886,0.0924,0.0926,0.0943,0.0826,0.0775,0.0551,0.07,0.033,0.0281,0.0194,-0.0025,-0.0029,-0.0141,-0.0137,-0.0134,-0.0091,0,0,0,0,0]}]]